Regional Weather Roundup
Issued by NWS Spokane, WA

Home | Current Version | Previous Version | Text Only | Print | Product List | Glossary On
Versions: 1 2 3 4 5 6 7 8 9 10 11 12 13 14 15 16 17 18 19 20 21 22 23 24 25 26 27 28 29 30 31 32 33 34 35 36 37 38 39 40 41 42 43 44 45 46 47 48 49 50
372
NZUS01 KOTX 111510
RWROTX
EASTERN WASHINGTON/NORTHERN IDAHO ROUNDUP
NATIONAL WEATHER SERVICE, SPOKANE WA
700 AM PST THU FEB 11 2016

Note: "fair" indicated few or no clouds below 12,000 feet with no
significant weather and/or obstructions to visibility.

...NORTHEAST WASHINGTON AND NORTHERN IDAHO PANHANDLE...

CITY           SKY/WX    TMP DP  RH WIND       PRES   REMARKS
SPOKANE INTL   FOG       32  31  96 CALM      30.30R VSB 1/16
SPOKANE DOWNTO FOG       33  32  96 CALM      30.33R VSB 1/4
COEUR D ALENE  CLOUDY    28  25  86 N3        30.29R VSB<1/4
DEER PARK      CLOUDY    34  32  92 N5        30.32R WCI  30
SANDPOINT      PTCLDY    28  28 100 CALM      30.32R FOG
BONNERS FERRY  CLOUDY    28  27  93 CALM      30.33R FOG

...SOUTHEAST WASHINGTON AND SOUTHERN IDAHO PANHANDLE...

CITY           SKY/WX    TMP DP  RH WIND       PRES   REMARKS
WALLA WALLA    CLOUDY    41  38  89 S6        30.26F
PULLMAN/MOSCOW PTCLDY    37  31  78 NE5       30.31R
LEWISTON       MOCLDY    43  35  73 E6        30.31R
LOWELL           N/A     35  33  92 CALM      30.39R

...COLUMBIA BASIN...

CITY           SKY/WX    TMP DP  RH WIND       PRES   REMARKS
EPHRATA        CLOUDY    38  35  89 N10       30.32F
MOSES LAKE     CLOUDY    35  33  92 N8        30.33F WCI  29
TRI CITIES     CLOUDY    39  36  89 W6        30.33R
HERMISTON      CLOUDY    45  39  79 NE9       30.26S
PENDLETON      CLOUDY    45  36  70 NE10      30.23S

...EAST SLOPES CASCADES...

CITY           SKY/WX    TMP DP  RH WIND       PRES   REMARKS
THE DALLES     CLOUDY    42  39  89 CALM      30.28F
YAKIMA         LGT RAIN  40  34  79 NW7       30.30S
ELLENSBURG     MIX PCPN  32  29  88 CALM      30.29F
WENATCHEE      CLOUDY    34  31  88 CALM      30.33S
OMAK           CLOUDY    32  30  92 S5        30.36R FOG     WCI  27

...SOUTHERN BRITISH COLUMBIA...

CITY           SKY/WX    TMP DP  RH WIND       PRES   REMARKS
PENTICTON      MOCLDY    34  32  93 N9        30.34F WCI  26
CASTLEGAR      CLOUDY    34  34 100 N3        30.36R FOG
CRANBROOK      MOCLDY    27  25  93 CALM      30.25R

...WESTERN MONTANA...

CITY           SKY/WX    TMP DP  RH WIND       PRES   REMARKS
MISSOULA       PTCLDY    32  29  88 CALM      30.30R

...NEIGHBORING CITIES...

CITY           SKY/WX    TMP DP  RH WIND       PRES   REMARKS
SEATTLE        CLOUDY    47  45  93 NW7       30.18F
CALGARY        MOCLDY    30  28  93 N7        30.12R WCI  23



USA.gov is the U.S. government's official web portal to all federal, state and local government web resources and services.